Total_Precipitation_Accumulation
0.00 0.00 0.00 0.00 0.00 0.00 0.01 0.02 0.02 0.02 0.01 0.02 0.03 0.00 0.01 0.03 0.01 0.00 0.00 0.02 0.04 0.08 0.27 0.37 0.07 0.00 0.00 0.02 0.05 0.06 0.05 0.05 0.05 0.06 0.08 0.04 0.05 0.02 0.02 0.08 0.13 0.11 0.04
0.00 0.00 0.00 0.00 0.00 0.00 0.02 0.02 0.03 0.01 0.01 0.02 0.12 0.25 0.31 0.30 0.26 0.21 0.19 0.07 0.19 0.20 0.14 0.36 0.10 0.03 0.07 0.05 0.06 0.04 0.04 0.01 0.02 0.08 0.08 0.06 0.04 0.05 0.03 0.14 0.18 0.11 0.07
0.00 0.00 0.00 0.00 0.00 0.00 0.01 0.02 0.05 0.04 0.06 0.09 0.14 0.20 0.13 0.06 0.26 0.34 0.41 0.31 0.29 0.45 0.41 0.46 0.17 0.09 0.10 0.08 0.07 0.03 0.02 0.01 0.01 0.03 0.05 0.03 0.04 0.09 0.10 0.24 0.08 0.10 0.09
0.00 0.00 0.00 0.00 0.01 0.01 0.00 0.01 0.04 0.05 0.06 0.05 0.08 0.09 0.07 0.04 0.08 0.16 0.27 0.38 0.50 0.54 0.57 0.66 0.50 0.30 0.17 0.13 0.08 0.03 0.02 0.00 0.00 0.03 0.00 0.02 0.06 0.13 0.12 0.11 0.09 0.08 0.09
0.00 0.00 0.00 0.00 0.01 0.01 0.01 0.00 0.01 0.01 0.05 0.02 0.07 0.04 0.04 0.02 0.02 0.08 0.32 0.39 0.47 0.54 0.67 0.72 0.88 0.37 0.12 0.14 0.11 0.06 0.05 0.02 0.00 0.00 0.01 0.04 0.09 0.19 0.17 0.15 0.08 0.09 0.11
0.00 0.00 0.00 0.00 0.00 0.01 0.01 0.01 0.00 0.01 0.06 0.05 0.16 0.09 0.08 0.08 0.00 0.03 0.12 0.72 1.06 0.60 0.46 0.60 0.92 0.50 0.20 0.19 0.14 0.08 0.05 0.03 0.01 0.01 0.04 0.07 0.06 0.19 0.16 0.05 0.04 0.05 0.06
0.00 0.00 0.00 0.00 0.00 0.01 0.01 0.00 0.00 0.01 0.03 0.04 0.17 0.15 0.10 0.16 0.16 0.14 0.15 0.38 0.85 1.11 0.41 0.59 0.61 0.45 0.42 0.32 0.14 0.13 0.06 0.08 0.02 0.01 0.02 0.07 0.14 0.16 0.13 0.07 0.08 0.06 0.05
0.00 0.00 0.00 0.00 0.00 0.00 0.00 0.01 0.00 0.01 0.00 0.02 0.09 0.06 0.08 0.28 0.49 0.38 0.39 0.48 0.44 1.67 0.44 0.74 0.59 0.34 0.39 0.39 0.11 0.19 0.14 0.11 0.02 0.03 0.03 0.10 0.26 0.21 0.20 0.18 0.16 0.12 0.11
0.00 0.00 0.00 0.00 0.01 0.00 0.00 0.00 0.00 0.00 0.01 0.09 0.02 0.04 0.24 0.26 0.16 0.70 1.37 1.06 0.69 1.73 0.75 0.48 0.27 0.46 0.44 0.34 0.22 0.22 0.18 0.19 0.07 0.04 0.04 0.18 0.36 0.31 0.21 0.14 0.09 0.07 0.04
0.00 0.00 0.00 0.00 0.00 0.00 0.00 0.00 0.00 0.00 0.01 0.02 0.00 0.01 0.02 0.09 0.11 1.97 1.96 1.98 1.44 0.83 0.49 0.21 0.28 0.28 0.42 0.40 0.24 0.20 0.17 0.16 0.12 0.04 0.12 0.26 0.29 0.14 0.05 0.02 0.01 0.01 0.01
0.00 0.00 0.00 0.00 0.00 0.00 0.00 0.01 0.00 0.01 0.00 0.00 0.00 0.00 0.00 0.01 0.04 1.71 1.41 1.38 1.58 0.70 0.42 0.25 0.14 0.16 0.44 0.46 0.22 0.13 0.10 0.11 0.04 0.05 0.10 0.08 0.06 0.03 0.00 0.00 0.01 0.01 0.01
0.00 0.00 0.00 0.00 0.00 0.00 0.00 0.01 0.00 0.00 0.00 0.00 0.00 0.00 0.00 0.01 0.02 0.69 1.48 1.00 1.57 1.01 0.52 0.17 0.06 0.17 0.34 0.39 0.16 0.06 0.03 0.05 0.02 0.01 0.03 0.02 0.01 0.01 0.00 0.00 0.00 0.00 0.00
0.00 0.00 0.00 0.00 0.00 0.00 0.00 0.00 0.00 0.00 0.00 0.00 0.03 0.00 0.01 0.01 0.00 0.10 0.68 0.98 1.13 0.60 0.20 0.06 0.01 0.04 0.16 0.23 0.08 0.01 0.00 0.02 0.02 0.01 0.01 0.02 0.01 0.01 0.01 0.00 0.00 0.00 0.00
0.00 0.00 0.00 0.00 0.00 0.00 0.00 0.00 0.00 0.00 0.00 0.00 0.01 0.00 0.00 0.03 0.03 0.02 0.12 0.26 0.51 0.28 0.23 0.02 0.00 0.01 0.03 0.04 0.02 0.00 0.00 0.00 0.00 0.00 0.00 0.00 0.01 0.01 0.01 0.00 0.00 0.00 0.00
0.00 0.00 0.00 0.00 0.00 0.00 0.00 0.00 0.00 0.00 0.00 0.00 0.00 0.00 0.00 0.00 0.01 0.00 0.02 0.06 0.09 0.09 0.10 0.01 0.00 0.00 0.00 0.00 0.00 0.00 0.00 0.00 0.00 0.00 0.00 0.00 0.00 0.00 0.00 0.00 0.00 0.00 0.00
0.00 0.00 0.00 0.00 0.00 0.00 0.00 0.00 0.00 0.00 0.00 0.00 0.00 0.00 0.00 0.00 0.00 0.00 0.00 0.01 0.01 0.03 0.03 0.00 0.00 0.00 0.00 0.00 0.00 0.00 0.00 0.00 0.00 0.00 0.00 0.00 0.00 0.00 0.00 0.00 0.00 0.00 0.00
0.00 0.00 0.00 0.00 0.00 0.00 0.00 0.00 0.00 0.00 0.00 0.00 0.00 0.00 0.00 0.00 0.00 0.00 0.00 0.00 0.00 0.02 0.01 0.00 0.00 0.00 0.00 0.00 0.00 0.00 0.00 0.00 0.00 0.00 0.00 0.00 0.00 0.00 0.00 0.00 0.00 0.00 0.00
0.00 0.00 0.00 0.00 0.00 0.00 0.00 0.00 0.00 0.00 0.00 0.00 0.00 0.00 0.00 0.00 0.00 0.00 0.00 0.00 0.00 0.02 0.01 0.00 0.00 0.00 0.00 0.00 0.00 0.00 0.00 0.00 0.00 0.00 0.00 0.00 0.00 0.00 0.00 0.00 0.00 0.00 0.00
0.00 0.00 0.00 0.00 0.00 0.00 0.00 0.00 0.00 0.00 0.00 0.00 0.00 0.00 0.00 0.00 0.00 0.00 0.00 0.00 0.00 0.00 0.01 0.00 0.00 0.00 0.00 0.00 0.00 0.00 0.00 0.00 0.00 0.00 0.00 0.00 0.00 0.00 0.00 0.00 0.00 0.00 0.00
0.00 0.00 0.00 0.01 0.00 0.00 0.00 0.00 0.00 0.00 0.00 0.00 0.00 0.00 0.00 0.00 0.00 0.00 0.00 0.00 0.00 0.00 0.00 0.00 0.00 0.00 0.00 0.00 0.00 0.00 0.00 0.00 0.00 0.00 0.00 0.00 0.00 0.00 0.00 0.00 0.00 0.00 0.00
0.00 0.00 0.01 0.01 0.00 0.00 0.00 0.00 0.00 0.00 0.00 0.00 0.00 0.00 0.00 0.00 0.00 0.00 0.00 0.00 0.00 0.00 0.00 0.00 0.00 0.00 0.00 0.00 0.00 0.00 0.00 0.00 0.00 0.00 0.00 0.00 0.00 0.00 0.00 0.00 0.00 0.00 0.00
0.01 0.01 0.02 0.01 0.01 0.00 0.00 0.00 0.00 0.00 0.00 0.00 0.00 0.00 0.00 0.00 0.00 0.00 0.00 0.00 0.00 0.00 0.00 0.00 0.00 0.00 0.00 0.00 0.00 0.00 0.00 0.00 0.00 0.00 0.00 0.00 0.00 0.00 0.00 0.00 0.00 0.00 0.00
0.04 0.04 0.06 0.04 0.02 0.00 0.00 0.00 0.00 0.01 0.00 0.00 0.00 0.00 0.00 0.00 0.00 0.00 0.00 0.00 0.00 0.00 0.00 0.00 0.00 0.00 0.00 0.00 0.00 0.00 0.00 0.00 0.00 0.00 0.00 0.00 0.00 0.00 0.00 0.00 0.00 0.00 0.00
0.03 0.05 0.08 0.08 0.04 0.02 0.00 0.00 0.00 0.00 0.00 0.00 0.00 0.00 0.01 0.00 0.00 0.00 0.00 0.00 0.00 0.00 0.00 0.00 0.00 0.00 0.00 0.00 0.00 0.00 0.00 0.00 0.00 0.00 0.00 0.00 0.00 0.00 0.00 0.00 0.00 0.00 0.00
0.03 0.06 0.08 0.11 0.06 0.04 0.02 0.00 0.00 0.01 0.00 0.00 0.01 0.01 0.02 0.01 0.00 0.00 0.00 0.00 0.00 0.00 0.00 0.00 0.00 0.00 0.00 0.00 0.00 0.00 0.00 0.00 0.00 0.00 0.00 0.00 0.00 0.00 0.00 0.00 0.00 0.00 0.00
0.04 0.07 0.13 0.16 0.10 0.03 0.03 0.03 0.01 0.00 0.00 0.01 0.03 0.03 0.01 0.02 0.01 0.00 0.00 0.00 0.00 0.00 0.00 0.00 0.00 0.00 0.00 0.00 0.00 0.00 0.00 0.00 0.00 0.00 0.00 0.00 0.00 0.00 0.00 0.00 0.00 0.00 0.00